Location: S�yn�tsalo
(62.1333°N, 25.7667°E)
Time: 18:28:41
(UTC+00:00)

Daily predictions for brighter satellites

Satellite Brightness Start Highest point End
(mag) Time Altitude Azimuth Time Altitude Azimuth Time Altitude Azimuth
Terra 3.3 17:50:51 10° E 17:54:35 23° NE 17:58:19 10° N
Cosmos 2360 Rocket 3.6 17:49:47 10° W 17:55:03 39° NNW 18:00:19 10° NE
Cosmos 2333 Rocket 3.2 17:50:05 10° WSW 17:55:37 51° NNW 18:01:11 10° NE
Cosmos 1606 Rocket 4.4 17:52:08 10° SSE 17:56:04 31° E 18:00:02 10° NNE
Cosmos 2341 Rocket 4.4 17:50:00 10° NNW 17:56:10 48° ENE 18:02:20 10° SE
Cosmos 2322 Rocket 3.6 17:52:09 10° WNW 17:57:22 35° N 18:02:34 10° ENE
Cosmos 1758 3.3 17:53:59 10° S 17:58:04 75° ESE 18:02:11 10° NNE
COSMOS 2455 2.9 17:52:29 10° NW 17:58:33 89° NE 18:04:37 10° SE
NOSS 2-1 (C) 3.3 17:57:24 10° WSW 18:01:01 80° SSE 18:05:34 10° ENE
SPOT 1/Viking Rocket 4.2 17:56:36 10° ESE 18:01:27 40° NE 18:06:19 10° NNW
Meteor 2-15 Rocket 4.4 17:56:01 10° S 18:02:02 69° E 18:08:06 10° NNE
Cosmos 2228 3.8 17:58:32 10° SSE 18:02:22 32° E 18:06:16 10° NNE
Cosmos 1980 Rocket 3.4 17:58:25 10° NW 18:03:36 36° NNE 18:08:46 10° E
ARGOS 3.9 17:59:05 10° S 18:04:24 58° WSW 18:09:45 10° NNW
NOSS 2-1 (D) 3.3 18:01:37 10° WSW 18:05:15 83° SSE 18:09:51 10° ENE
MetOp-A 4.3 18:01:12 10° SSE 18:06:34 81° WSW 18:11:59 10° NNW
IGS 5A 4.3 18:03:45 10° SE 18:07:35 36° ENE 18:11:26 10° N
Cosmos 1603 4.3 18:03:37 10° S 18:08:36 34° ESE 18:13:37 10° NE
Cosmos 2184 Rocket 4.2 18:02:14 10° NNW 18:08:38 84° WSW 18:14:55 10° S
Meteor 2-15 4.5 18:05:01 10° SSW 18:11:06 87° E 18:17:13 10° NNE
Cosmos 2237 Rocket 2.7 18:06:58 10° WSW 18:12:36 68° NW 18:18:17 10° NE
ERS-1 Rocket 3.7 18:08:18 10° ESE 18:12:57 39° NE 18:17:37 10° NNW
Cosmos 1328 3.8 18:09:54 10° NNW 18:13:57 89° ESE 18:17:58 10° SSE
H-2A R/B 3.2 18:09:14 10° S 18:14:13 44° W 18:19:06 10° NNW
Meteor 1-16 Rocket 4.4 18:10:32 10° S 18:15:45 50° E 18:21:09 10° NNE
NOSS 7 (E) 4.5 18:13:06 10° W 18:16:12 72° N 18:19:48 10° E
Cosmos 1340 Rocket 4.1 18:13:12 10° SE 18:16:24 23° E 18:19:36 10° NE
Cosmos 1726 2.3 18:13:16 10° S 18:16:55 51° E 18:20:34 10° NNE
Cosmos 2218 Rocket 4.5 18:11:09 10° N 18:17:03 44° ENE 18:22:59 10° SE
Cosmos 1892 4.1 18:15:37 10° N 18:18:51 24° ENE 18:21:50 11° ESE
USA 186 3.9 18:15:59 10° SSW 18:18:58 29° W 18:21:50 10° NNW
Resurs 1-3 3.9 18:16:48 10° S 18:21:11 70° WSW 18:25:36 10° NNW
Cosmos 1656 4.2 18:16:29 10° NW 18:22:06 53° NNE 18:27:32 11° ESE
Cosmos 1269 Rocket 4.3 18:17:19 10° SW 18:22:39 77° NW 18:28:01 10° NE
DMSP B5D2-2 4.3 18:19:58 10° NNE 18:25:03 48° E 18:30:06 10° S
Cosmos 1703 3.5 18:21:39 10° NNW 18:25:36 72° W 18:29:33 10° S
ATLAS CENTAUR R/B 1.7 18:21:40 10° WNW 18:25:51 62° N 18:29:45 10° E
Meteor 2-10 4.2 18:20:51 10° S 18:26:17 64° E 18:31:55 10° NNE
Cosmos 1461 3.6 18:22:51 10° WNW 18:27:10 53° SW 18:31:32 10° SE
NOSS 3-4 (A) 4.4 18:23:31 10° WNW 18:29:58 51° SW 18:37:04 10° SSE
NOSS 3-4 (C) 4.4 18:23:37 10° WNW 18:30:04 51° SW 18:37:10 10° SSE
Cosmos 2154 Rocket 4.1 18:24:04 10° NNW 18:30:29 86° WSW 18:36:51 10° S
Cosmos 1408 4.3 18:28:12 10° N 18:30:56 19° NE 18:33:15 12° E
Cosmos 1076 Rocket 4.3 18:27:00 10° N 18:30:59 36° ENE 18:34:22 13° SE
Intercosmos 24 Rocket 4.4 18:26:52 10° SSW 18:31:25 89° WNW 18:35:05 10° NNE
NOSS 7 (H) 4.5 18:28:47 10° WNW 18:31:54 79° N 18:35:30 12° E
Cosmos 2251 Rocket 3.6 18:27:48 10° SSW 18:33:05 59° ESE 18:38:24 10° NE
ERBS 3.2 18:30:13 10° WSW 18:33:20 33° S 18:35:40 15° SE
Cosmos 2151 4.4 18:31:44 10° N 18:35:11 24° NE 18:38:03 13° ESE
Cosmos 1953 2.3 18:31:36 10° SSW 18:35:36 87° WNW 18:39:38 10° NNE
Cosmos 2369 Rocket 4.0 18:31:33 10° NW 18:36:20 28° WSW 18:41:03 10° SSW
Cosmos 962 Rocket 4.5 18:31:22 10° NNW 18:37:36 77° ENE 18:43:46 10° SSE
Cosmos 1825 3.9 18:37:16 10° N 18:40:07 20° NE 18:42:26 12° E
Resurs 01 Rocket 2.0 18:36:35 10° S 18:40:59 64° WSW 18:45:24 10° NNW
ADEOS Rocket 4.3 18:34:39 10° NNE 18:41:21 50° NW 18:47:22 10° SW
Cosmos 1943 Rocket 4.4 18:38:04 10° WNW 18:42:07 21° WSW 18:46:10 10° SSW
SL-8 Rocket 4.1 18:35:54 10° NNW 18:42:11 64° ENE 18:48:15 11° SSE
CZ-2C R/B 3.7 18:39:13 10° NNE 18:44:01 76° ESE 18:48:44 10° SSW
Aureole 3 4.5 18:39:03 10° SSW 18:44:03 76° WNW 18:50:29 10° NNE
Cosmos 1763 Rocket 3.8 18:39:21 10° NW 18:44:33 56° NE 18:48:46 15° ESE
NOSS 3-3 (A) 4.4 18:40:02 10° SSW 18:45:44 42° SE 18:52:11 10° ENE
NOSS 3-3 (C) 4.4 18:40:09 10° SSW 18:45:51 41° SE 18:52:17 10° ENE
USA 245 4.4 18:40:56 10° SSE 18:46:37 83° ENE 18:53:05 10° NNW
Cosmos 2058 Rocket 3.5 18:42:23 10° SSE 18:46:41 45° E 18:51:00 10° NNE
Nadezhda 1 Rocket 4.1 18:40:25 10° S 18:46:45 67° E 18:53:03 10° NNE
Landsat 7 3.8 18:45:26 11° SSE 18:49:56 76° ENE 18:54:43 10° NNW
Cosmos 1300 3.7 18:48:52 16° SE 18:51:07 28° E 18:54:27 10° NNE
Cosmos 2366 rocket 4.1 18:46:23 10° NNW 18:52:30 61° ENE 18:57:50 14° SSE
Cosmos 1174 3.7 18:49:04 10° WNW 18:52:36 81° SSW 18:55:42 18° SE
NOSS 2-1 (E) 3.6 18:49:46 10° W 18:53:35 81° N 18:58:33 10° ENE
Cosmos 1470 4.5 18:52:43 10° SW 18:56:22 37° WNW 19:00:05 10° N
Cosmos 2219 Rocket 3.7 18:51:09 10° W 18:56:24 38° NNW 19:01:39 10° NE
Cosmos 1908 3.1 18:54:44 10° S 18:58:35 71° E 19:02:29 10° NNE
Cosmos 2058 3.1 18:54:50 10° N 18:58:53 53° ENE 19:01:42 19° SE
COSMOS 2428 4.1 18:54:13 10° W 18:59:35 39° NNW 19:04:57 10° NE
USA 234 4.0 18:56:26 10° E 19:01:51 27° SE 19:07:14 10° SSW
ATLAS 2AS CENTAUR R/B 3.9 18:54:56 10° WNW 19:02:02 40° SW 19:08:38 10° SSE
CARTOSAT-1 3.7 18:59:46 17° SE 19:02:57 62° ENE 19:07:15 10° NNW
Cosmos 2369 4.1 18:57:31 10° NW 19:03:07 57° NE 19:07:36 16° ESE
SPOT 5 2.7 19:00:07 18° SE 19:03:18 61° ENE 19:07:35 10° NNW
Cosmos 1726 Rocket 3.5 19:01:02 10° S 19:05:27 82° ESE 19:09:57 10° NNE
Cosmos 540 Rocket 4.0 19:00:57 10° NNW 19:06:00 48° NE 19:09:46 17° ESE
Cosmos 2344 4.1 18:59:52 10° WNW 19:08:04 87° NNE 19:18:52 11° ESE
Cosmos 1943 3.2 19:03:11 10° SSW 19:08:44 59° ESE 19:14:21 10° NE
Spot 2 Rocket 3.8 19:06:21 10° S 19:11:28 66° WSW 19:16:35 10° NNW
Aureole 1 Rocket 4.2 19:04:55 10° S 19:11:51 50° ESE 19:17:17 10° NE
SeaSat 1 3.3 19:07:44 10° NE 19:12:34 54° NW 19:17:22 10° WSW
Cosmos 1570 Rocket 4.3 19:07:56 10° NW 19:13:18 62° NE 19:17:01 20° SE
Iridium 4 Rocket 3.1 19:09:43 10° N 19:14:09 59° E 19:16:55 20° SSE
Cosmos 1140 Rocket 4.0 19:11:35 10° S 19:16:19 37° ESE 19:21:03 10° NE
Cosmos 841 Rocket 3.8 19:12:46 10° NW 19:18:00 58° NE 19:21:34 20° ESE
MOS 1 Rocket 3.6 19:13:15 10° NNE 19:18:30 86° WNW 19:23:55 10° SSW
Cosmos 1697 Rocket 2.9 19:15:33 10° NW 19:21:14 66° NE 19:25:14 20° ESE
RESURS DK-1 2.5 19:17:11 10° NW 19:21:22 69° NE 19:23:48 24° ESE
Cosmos 1812 Rocket 4.2 19:23:26 24° SE 19:25:23 36° E 19:29:23 10° NNE
CZ-4C R/B 2.7 19:19:42 10° WNW 19:26:01 89° NNE 19:32:22 16° ESE
Cosmos 468 Rocket 4.0 19:20:46 10° NW 19:26:02 86° WSW 19:29:25 22° SSE
SL-08 R/B 4.5 19:21:46 10° NNW 19:27:54 71° ENE 19:32:16 20° SSE
Cosmos 192 4.4 19:22:59 10° NW 19:27:57 75° WSW 19:31:11 22° SSE
Cosmos 2084 3.6 19:24:31 10° W 19:29:01 82° N 19:32:39 15° E
Cosmos 921 Rocket 4.1 19:25:33 10° NW 19:29:27 37° WSW 19:32:50 13° S
SL-16 R/B 2.9 19:24:40 10° WSW 19:30:16 57° NNW 19:35:52 10° NE
CZ-2C R/B 2.7 19:25:19 10° NNE 19:30:33 80° WNW 19:35:44 10° SSW
SL-16 R/B 3.3 19:25:55 10° NW 19:31:16 39° NNE 19:36:36 10° E
Terra 1.8 19:28:44 23° SSE 19:31:45 77° ENE 19:36:34 10° NNW
Cosmos 1606 Rocket 4.3 19:29:21 10° SSW 19:33:44 56° WNW 19:38:10 10° N
Cosmos 1818 3.8 19:28:43 10° SSW 19:33:54 46° SE 19:39:06 10° ENE
Cosmos 1821 Rocket 4.3 19:28:56 10° NNW 19:35:12 58° ENE 19:39:15 23° SE
Mayak 0.2 19:33:14 10° NE 19:36:20 20° E 19:36:48 19° E
Cosmos 614 Rocket 3.9 19:32:39 10° SSW 19:37:51 67° ESE 19:43:02 10° NE
Cosmos 489 Rocket 4.5 19:32:08 10° NW 19:38:24 85° NE 19:42:25 24° SE
SAR-Lupe-2 3.5 19:35:05 10° NNE 19:38:42 86° WNW 19:42:08 11° SSW
Cosmos 407 Rocket 3.4 19:33:49 10° SSW 19:38:52 60° ESE 19:43:56 10° NE
Cosmos 2228 3.9 19:35:34 10° SW 19:39:48 52° WNW 19:44:05 10° N
Cosmos 2360 Rocket 3.6 19:35:10 10° WNW 19:40:20 35° N 19:45:30 10° ENE
SPOT 1/Viking Rocket 4.0 19:36:24 15° S 19:40:46 60° WSW 19:45:59 10° NNW
Cosmos 2333 Rocket 3.7 19:35:48 10° WNW 19:41:00 35° N 19:46:11 10° ENE
Cosmos 2322 Rocket 3.3 19:37:23 10° NW 19:42:43 39° NNE 19:48:01 10° E
IGS 5A 4.3 19:39:45 15° S 19:43:00 48° W 19:47:05 10° NNW
Iridium 2 3.6 19:41:09 25° S 19:43:17 75° E 19:47:08 10° N
COSMOS 2455 3.9 19:38:37 10° WNW 19:44:05 37° WSW 19:48:18 16° S
Cosmos 1934 Rocket 4.5 19:41:22 10° NNW 19:47:31 49° ENE 19:51:07 24° SE
Cosmos 2208 Rocket 4.0 19:42:30 10° NW 19:47:44 80° NE 19:50:34 28° SE
Cosmos 1980 Rocket 2.5 19:42:55 10° NW 19:48:32 63° NE 19:52:07 23° ESE
Cosmos 1408 Rocket 4.2 19:46:27 10° N 19:50:46 44° ENE 19:52:36 29° ESE
ERS-1 Rocket 3.4 19:47:59 18° S 19:51:39 60° WSW 19:56:39 10° NNW
NOSS 2-1 (C) 3.7 19:47:42 10° W 19:51:39 76° N 19:56:21 13° E
Cosmos 1726 4.3 19:49:04 10° WSW 19:52:21 28° WNW 19:55:39 10° N
Cosmos 1603 3.8 19:46:44 10° SW 19:52:22 81° NW 19:58:02 10° NE
Cosmos 1340 Rocket 3.1 19:48:27 10° SSW 19:52:31 70° WNW 19:56:34 10° NNE
Spot 4 4.4 19:52:36 26° ESE 19:54:55 47° ENE 19:59:32 10° NNW
Cosmos 1892 2.9 19:51:04 10° NNW 19:54:56 67° W 19:56:50 28° S
Cosmos 2360 4.3 19:49:13 10° NW 19:54:57 76° NE 19:58:17 26° SE
NOSS 2-1 (D) 3.7 19:51:55 10° W 19:55:54 77° N 20:00:28 13° E
ASTEX 1 3.8 19:54:18 29° SE 19:56:34 51° ENE 20:01:24 10° N
Cosmos 2237 Rocket 3.7 19:52:17 10° W 19:57:32 37° NNW 20:02:49 10° NE
Cosmos 1954 Rocket 4.2 19:57:46 22° S 20:01:00 51° ESE 20:06:03 10° NE
Cosmos 1633 4.3 19:58:41 10° N 20:01:30 21° ENE 20:02:27 19° E
Cosmos 1455 2.9 20:02:08 34° ESE 20:02:32 35° E 20:06:03 10° NNE
Cosmos 2218 Rocket 4.4 19:56:49 10° NNW 20:02:52 60° W 20:07:51 16° S
Cosmos 1356 Rocket 4.2 20:03:38 33° ESE 20:04:23 35° E 20:08:18 10° NNE
ATLAS CENTAUR R/B 1.2 20:00:50 10° WNW 20:04:56 75° SSW 20:06:08 42° SE
Cosmos 1656 3.9 20:00:20 10° NW 20:06:00 64° WSW 20:08:58 28° SSE
Cosmos 1408 2.5 20:02:47 10° NNW 20:06:26 80° WSW 20:07:36 41° S
Cosmos 2278 3.7 20:01:36 10° NW 20:07:18 81° NE 20:10:19 29° SE
Cosmos 1076 Rocket 4.3 20:04:31 10° NNW 20:08:37 46° W 20:11:09 21° SSW
ERBS 4.1 20:06:28 10° WSW 20:08:37 20° SW 20:08:37 20° SW
Cosmos 2151 2.9 20:08:46 10° NNW 20:13:00 80° WSW 20:14:39 36° S
Cosmos 967 Rocket 4.5 20:09:34 10° SW 20:16:05 85° SSE 20:22:38 10° ENE
Cosmos 1825 2.1 20:12:21 10° NNW 20:16:10 87° WSW 20:17:14 46° S
USA 32 4.1 20:11:56 10° NNW 20:17:13 77° W 20:20:05 28° S
Cosmos 1023 Rocket 4.3 20:12:07 10° SSW 20:17:18 81° ESE 20:22:28 10° NE
Resurs 01 Rocket 4.3 20:15:52 10° WSW 20:18:22 15° W 20:20:53 10° NW
ATLAS 5 CENTAUR R/B 2.3 20:20:51 36° SE 20:20:51 36° SE 20:25:11 10° ENE
Cosmos 2082 Rocket 4.0 20:20:57 14° E 20:20:57 14° E 20:23:32 10° ENE
Cosmos 1814 Rocket 4.1 20:18:39 10° NW 20:24:00 76° WSW 20:26:21 35° SSE
EO 1 Del DPAF 4.1 20:20:49 10° NNE 20:24:06 31° E 20:24:06 31° E
Cosmos 2181 Rocket 4.1 20:18:40 11° SSW 20:24:41 76° WNW 20:30:54 10° NNE
Okean 3 Rocket 3.7 20:20:22 10° NNW 20:24:46 71° W 20:26:29 36° S
Cosmos 2058 Rocket 4.4 20:20:31 10° SW 20:24:47 40° WNW 20:29:05 10° N
Cosmos 1763 Rocket 4.1 20:21:22 10° NW 20:26:23 46° WSW 20:28:47 27° SSW
Cosmos 1300 3.5 20:23:46 16° SW 20:26:38 49° WNW 20:30:24 10° N
COSMOS 2406 4.0 20:27:21 29° ESE 20:27:58 30° ESE 20:32:52 10° NE
Meteor 2-1 Rocket 4.3 20:25:44 23° S 20:29:31 81° ESE 20:35:31 10° NNE
Elektron 3 3.8 20:27:17 10° W 20:31:23 73° S 20:31:39 67° SE
Cosmos 2221 4.0 20:32:07 22° E 20:32:27 23° E 20:35:52 10° NE
Helios 1A 3.9 20:31:52 30° E 20:33:11 38° ENE 20:37:06 10° N
ALOS 2 3.2 20:32:12 35° ESE 20:33:36 48° ENE 20:37:51 10° NNW
Cosmos-2242 3.0 20:32:35 46° SSE 20:33:38 62° E 20:37:57 10° NNE
Cosmos 2058 4.5 20:32:03 10° NNW 20:35:37 29° W 20:37:55 17° SW
NOSS 3-3 (A) 4.1 20:29:48 10° WSW 20:36:09 84° SSE 20:43:29 10° ENE
NOSS 3-3 (C) 4.1 20:29:55 10° WSW 20:36:15 84° SSE 20:43:35 10° ENE
Cosmos 1833 Rocket 3.9 20:39:56 24° ESE 20:40:04 24° ESE 20:44:30 10° NE
Cosmos 2219 Rocket 3.7 20:36:28 10° NW 20:41:39 35° N 20:46:49 10° ENE
SPOT 5 4.1 20:39:20 18° SW 20:41:45 29° W 20:45:33 10° NNW
Cosmos 1766 Rocket 3.9 20:39:04 10° NNW 20:43:31 60° W 20:45:05 37° SSW
SL-24 R/B - RUBIN 2 4.4 20:37:40 10° SW 20:43:33 61° SE 20:50:00 10° ENE
NOSS 2-1 (E) 3.7 20:40:06 10° WNW 20:44:19 86° NNE 20:47:50 22° ESE
COSMOS 2428 4.2 20:39:52 10° WNW 20:45:09 36° N 20:50:25 10° ENE
USA 234 3.4 20:39:42 10° E 20:46:01 48° SSE 20:52:19 10° SW
Sich 1 4.2 20:42:48 10° N 20:46:54 34° ENE 20:48:17 28° E
Cosmos 1850 Rocket 4.1 20:45:58 41° SSE 20:47:18 52° ESE 20:52:20 10° NE
Cosmos 2369 4.0 20:41:53 10° NW 20:47:26 57° WSW 20:49:33 36° S
Cosmos 540 Rocket 3.8 20:42:42 10° NW 20:47:47 55° WSW 20:49:35 36° S
SL-16 R/B 4.4 20:43:52 10° E 20:48:39 24° NNE 20:53:26 10° NNW
Cosmos 1190 Rocket 4.3 20:43:49 10° SW 20:49:07 68° NW 20:54:25 10° NE
SeaSat 1 4.4 20:45:12 10° NE 20:49:30 30° NNW 20:53:47 10° WNW
MINOTAUR IV R/B 4.4 20:49:14 34° SSW 20:51:09 78° SE 20:55:41 10° NE
Cosmos 1943 3.9 20:47:21 10° WSW 20:52:57 56° NNW 20:58:36 10° NE
Cosmos 1535 Rocket 4.4 20:48:47 10° NNW 20:54:57 84° WSW 20:57:42 36° S
Nadezhda 3 Rocket 4.0 20:52:27 32° S 20:55:34 78° E 21:01:53 10° NNE
Aureole 1 Rocket 4.4 20:49:31 10° SW 20:56:26 61° NW 21:01:43 10° NE
Cosmos 1500 Rocket 3.5 20:52:42 10° NNW 20:57:04 76° ENE 20:57:59 54° SE
Cosmos 1805 Rocket 4.1 20:53:08 10° N 20:57:29 48° ENE 20:58:35 39° ESE
Meteor 2-3 Rocket 3.8 20:52:04 10° NNW 20:57:53 76° WSW 21:00:13 37° S
Cosmos 1140 Rocket 3.8 20:52:46 10° SW 20:57:56 66° NW 21:03:06 10° NE
RESURS DK-1 3.4 20:55:28 10° NW 20:59:12 32° WSW 20:59:42 31° SW
Cosmos 841 Rocket 4.2 20:54:51 10° NW 20:59:51 44° WSW 21:01:39 33° SSW
Cosmos 1812 Rocket 4.4 21:00:33 21° SW 21:03:12 46° WNW 21:07:25 10° N
Cosmos 1697 Rocket 3.2 20:59:43 10° NW 21:05:07 46° WSW 21:06:58 34° SSW
Intercosmos 25 3.9 21:08:34 36° ENE 21:08:34 36° ENE 21:11:04 10° NNE
Cosmos 2084 3.4 21:04:08 10° WNW 21:08:35 67° SSW 21:09:11 59° SSE
Terra 3.4 21:07:36 18° SW 21:10:01 26° W 21:14:04 10° NNW
Mayak -1.3 21:08:17 10° NNE 21:12:29 86° WNW 21:13:22 55° SSW
CZ-4C R/B 3.0 21:08:04 10° WNW 21:14:32 55° SW 21:17:33 35° SSE
SL-16 R/B 3.8 21:10:13 10° WNW 21:15:25 35° N 21:20:37 10° ENE
SL-16 R/B 2.3 21:10:24 10° NW 21:16:08 76° NE 21:18:42 34° ESE
Cosmos 676 Rocket 4.3 21:12:05 12° SW 21:16:59 66° NW 21:22:14 10° NE
Cosmos 1818 3.6 21:11:49 10° WSW 21:17:18 83° NNW 21:22:49 10° ENE
Cosmos 1633 Rocket 4.1 21:13:44 10° N 21:17:56 38° ENE 21:19:07 32° E
JB-3 4.1 21:18:37 10° NNE 21:22:28 86° WNW 21:22:51 71° SSW
Cosmos 2344 4.3 21:13:59 10° WNW 21:22:34 61° SW 21:28:51 29° SSE
Meteor 2-10 Rocket 3.6 21:20:35 34° SSW 21:22:56 76° WNW 21:28:25 10° NNE
Thor Agena Rocket 3.4 21:18:19 10° NNE 21:23:25 83° ESE 21:25:02 45° SSW
Cosmos 1340 2.8 21:21:08 10° NNW 21:24:55 62° ENE 21:25:08 60° E
Cosmos 2360 Rocket 2.7 21:19:46 10° NW 21:25:21 57° NE 21:29:00 22° ESE
Cosmos 2100 Rocket 4.2 21:19:26 10° NNW 21:25:36 62° ENE 21:28:10 35° SE
Cosmos 2333 Rocket 3.3 21:21:05 10° NW 21:26:30 43° NNE 21:31:53 10° E
Cosmos 1743 Rocket 3.7 21:22:07 10° NNW 21:26:34 64° W 21:27:24 52° SSW
Cosmos 1238 Rocket 3.4 21:24:06 10° N 21:26:26 34° NE 21:26:26 34° NE
Cosmos 2322 Rocket 2.2 21:21:48 10° NW 21:27:31 77° NE 21:30:00 35° ESE
Cosmos 1869 4.0 21:28:31 41° E 21:28:31 41° E 21:32:09 10° NNE
Cosmos 1408 Rocket 4.5 21:24:24 10° NNW 21:28:36 40° W 21:29:42 34° SW
Cosmos 1980 Rocket 2.6 21:27:07 10° NW 21:32:31 49° WSW 21:33:52 40° SSW
Cosmos 1241 Rocket 4.4 21:26:31 10° WNW 21:32:47 88° SSW 21:36:08 30° ESE
Cosmos 1934 Rocket 4.4 21:26:48 10° NNW 21:32:57 54° W 21:35:38 32° SSW
ASTEX 1 4.4 21:33:47 28° SW 21:35:46 40° W 21:40:28 10° NNW
Cosmos 1633 2.6 21:33:10 10° NNW 21:36:35 68° W 21:36:35 68° W
Cosmos 1455 3.3 21:37:02 32° WSW 21:38:08 40° WNW 21:41:48 10° N
Cosmos 1605 Rocket 4.1 21:33:33 10° NNW 21:39:36 66° W 21:41:55 39° SSW
Cosmos 1356 Rocket 4.3 21:39:45 31° WSW 21:41:21 47° WNW 21:45:30 10° NNE
Cosmos 1741 Rocket 4.0 21:39:05 35° SW 21:41:25 85° NW 21:46:48 10° NE
Cosmos 2173 Rocket 4.0 21:35:21 10° NNW 21:41:28 70° ENE 21:43:48 39° SE
NOSS 2-1 (C) 3.8 21:37:57 10° WNW 21:42:17 69° SSW 21:43:40 47° SE
Cosmos 1862 3.2 21:38:37 10° NNW 21:42:43 80° ENE 21:43:02 73° SE
Cosmos 2237 Rocket 3.7 21:37:40 10° NW 21:42:54 36° NNE 21:48:09 10° ENE
ATLAS CENTAUR R/B 3.0 21:40:10 10° WNW 21:42:19 21° WSW 21:42:19 21° WSW
YAOGAN 11 4.1 21:45:38 61° S 21:46:24 83° WSW 21:51:02 10° NNW
NOSS 2-1 (D) 3.8 21:42:10 10° WNW 21:46:30 67° SSW 21:47:48 49° SSE
Cosmos 1825 4.4 21:48:47 10° NW 21:51:08 16° W 21:52:03 15° W
Cosmos 1346 Rocket 2.7 21:47:41 10° NNW 21:51:44 82° ENE 21:51:57 77° ESE
SME Rocket 4.0 21:48:56 10° NNE 21:53:47 37° E 21:54:12 36° ESE
Meteor 1-27 4.2 21:52:51 45° S 21:54:47 85° ESE 22:00:41 10° NNE
EO 1 Del DPAF 4.0 21:54:47 10° N 21:58:25 46° WNW 21:59:08 40° W
Cosmos 783 Rocket 4.5 21:54:23 10° NW 21:59:44 76° WSW 22:01:02 52° S
Cosmos 1666 Rocket 3.4 21:57:50 10° NNW 22:02:12 84° ENE 22:02:43 69° SSE
Cosmos 1933 Rocket 4.5 21:58:01 10° N 22:02:15 42° ENE 22:03:29 34° ESE
Cosmos 1339 Rocket 4.5 22:00:27 41° SSW 22:02:57 90° E 22:09:26 10° NNE
Cosmos 2082 Rocket 2.5 22:02:45 44° SE 22:03:38 48° ESE 22:09:04 10° NE
Cosmos 1842 Rocket 3.6 22:03:43 58° SW 22:04:26 72° WNW 22:08:49 10° NNE
ATLAS 5 CENTAUR R/B 1.7 22:02:16 28° WSW 22:04:48 85° SSE 22:10:12 10° ENE
MOS 1-B Rocket 4.3 22:00:35 10° NNE 22:06:19 55° ESE 22:08:18 40° SSE
Helios 1A 3.4 22:08:28 46° WSW 22:08:43 47° W 22:12:49 10° NNW
Cosmos 2221 2.5 22:08:57 63° SW 22:09:36 78° WNW 22:14:00 10° NNE
ALOS 2 3.4 22:09:35 37° WSW 22:10:04 38° W 22:14:13 10° NNW
COSMOS 2406 3.1 22:09:22 37° SW 22:11:46 90° SE 22:17:33 10° NE
Cosmos 1400 Rocket 2.8 22:12:59 70° ESE 22:13:00 70° ESE 22:16:58 10° NNE
Nimbus 7 Rocket 4.3 22:09:01 10° NNE 22:14:57 90° ESE 22:17:05 42° SSW
Cosmos 2061 Rocket 4.0 22:10:45 10° NNW 22:17:01 82° ENE 22:19:24 41° SSE
Cosmos 1680 Rocket 4.3 22:14:41 10° NNW 22:19:47 49° NE 22:23:36 17° ESE
Cosmos 2237 4.1 22:14:17 10° NW 22:20:02 89° SW 22:22:21 38° SE
Cosmos 1538 Rocket 4.0 22:16:36 10° NW 22:21:55 87° NE 22:23:37 45° SE
Cosmos 1833 Rocket 2.6 22:21:35 46° SSW 22:23:18 77° SE 22:28:58 10° NE
Sich 1 3.3 22:20:28 10° NNW 22:24:49 53° W 22:25:15 51° WSW
SeaSat 1 4.5 22:21:55 10° ENE 22:26:08 29° N 22:30:23 10° NW
Cosmos 2219 Rocket 2.7 22:21:00 10° NW 22:26:36 59° NE 22:31:44 12° ESE
NOSS 3-3 (A) 4.3 22:20:42 10° W 22:27:22 81° N 22:35:02 10° E
NOSS 3-3 (C) 4.3 22:20:48 10° W 22:27:27 81° N 22:35:08 10° E
Meteor 2-2 Rocket 4.2 22:26:34 46° SSW 22:28:24 85° WNW 22:34:06 10° NNE
Cosmos 1328 Rocket 4.4 22:27:59 36° ESE 22:28:28 37° E 22:32:27 10° NNE
USA 234 3.2 22:23:19 10° E 22:29:47 59° S 22:36:15 10° W
COSMOS 2428 3.2 22:24:43 10° NW 22:30:25 60° NE 22:35:59 10° ESE
SL-16 R/B 3.1 22:27:03 20° SE 22:31:15 54° ENE 22:37:18 10° NNW
Cosmos 2322 3.8 22:27:41 10° NW 22:33:26 77° NE 22:36:53 25° SE
NOSS 2-1 (E) 4.2 22:30:19 10° WNW 22:34:50 49° SW 22:35:10 49° SSW
Spot 1 3.9 22:34:27 67° SSE 22:35:01 87° ENE 22:39:12 10° NNW
Meteor 1-20 Rocket 4.3 22:29:19 10° NNW 22:35:13 78° ENE 22:37:25 40° SSE
Cosmos 1805 Rocket 4.4 22:31:10 10° NNW 22:35:16 37° W 22:35:43 36° WSW
Cosmos 2333 4.2 22:32:01 10° NW 22:37:41 77° NE 22:41:05 25° SE
Cosmos 1486 Rocket 4.0 22:37:28 53° S 22:38:34 69° ESE 22:43:50 10° NE
Cosmos 1933 4.3 22:38:19 34° ESE 22:38:37 34° E 22:42:17 10° NNE
Cosmos 773 Rocket 4.0 22:38:11 10° NW 22:43:18 59° WSW 22:44:09 52° SSW
Cosmos 1470 Rocket 3.4 22:41:56 10° NNW 22:46:23 81° WSW 22:46:55 68° S
SL-19 R/B 4.4 22:44:26 33° SE 22:47:10 77° ENE 22:52:48 10° NNW
Mayak 0.9 22:44:24 10° N 22:47:35 22° NW 22:49:57 14° W
PSLV R/B 3.9 22:44:28 10° NNE 22:48:46 53° ESE 22:49:24 48° SE
CZ-4 R/B 4.0 22:46:43 10° NNE 22:51:36 67° ESE 22:52:40 51° SSE
Helios 1B rocket 2.4 22:48:19 10° NNE 22:52:27 69° ESE 22:52:46 65° SE
Cosmos 1441 Rocket 3.7 22:49:44 10° NNW 22:53:31 53° ENE 22:54:05 48° E
Cosmos 1633 Rocket 3.5 22:51:36 10° NNW 22:55:51 47° W 22:56:12 45° WSW
CZ-4C R/B 3.2 22:57:02 65° E 22:57:11 66° ENE 23:00:40 10° NNW
H-2A R/B 4.4 22:54:49 10° E 22:57:57 21° NE 23:01:05 10° N
Cosmos 1459 Rocket 4.4 22:53:03 10° NNW 22:59:11 51° W 23:01:18 37° SW
Landsat 4 4.2 22:56:09 10° NNE 22:59:52 51° WNW 23:00:17 48° W
SL-16 R/B 2.8 22:54:46 10° NW 22:59:58 38° WSW 23:00:33 37° SW
Cosmos 1340 4.4 22:57:12 10° NW 22:59:54 23° W 22:59:54 23° W
Cosmos 1315 Rocket 2.7 23:00:15 74° SSE 23:00:34 82° ESE 23:04:43 10° NNE
Cosmos 1802 Rocket 4.2 22:54:38 10° NNW 23:00:45 56° W 23:02:46 39° SSW
SL-16 R/B 3.6 22:55:29 10° NW 23:00:49 39° NNE 23:06:08 10° E
Cosmos 1818 4.0 22:55:50 10° W 23:01:17 65° N 23:06:44 10° E
Cosmos 1727 Rocket 4.2 22:59:22 36° SW 23:02:00 64° WNW 23:08:20 10° NNE
CZ-4C R/B 4.0 22:56:50 10° WNW 23:02:13 24° WSW 23:02:43 24° SW
Cosmos 2112 Rocket 4.2 22:57:43 10° NW 23:02:57 70° NE 23:06:12 23° SE
Cosmos 2233 Rocket 3.9 22:58:19 10° NNW 23:04:42 90° SW 23:07:22 38° SSE
Cosmos 1869 4.3 23:04:02 34° W 23:04:44 36° WNW 23:08:29 10° N
Cosmos 1238 Rocket 4.3 23:04:00 10° NW 23:05:20 18° WNW 23:05:20 18° WNW
Cosmos 1725 Rocket 4.1 23:00:43 10° NNW 23:07:01 67° W 23:09:17 41° SSW
Cosmos 1602 3.7 23:03:37 10° NNW 23:07:33 75° ENE 23:08:00 65° SE
MOZ.5/SAFIR/RUBIN 5/SL-8 3.9 23:07:19 42° SE 23:08:56 77° ENE 23:13:44 10° NNW
Cosmos 968 Rocket 3.4 23:07:37 50° SSW 23:09:02 81° ESE 23:14:20 10° NE
Cosmos 2360 Rocket 2.3 23:03:58 10° NW 23:09:28 56° WSW 23:10:44 46° SSW
SL-27 R/B 3.0 23:10:43 46° E 23:10:43 46° E 23:13:28 10° NE
Cosmos 2016 Rocket 4.2 23:04:00 10° NNW 23:10:15 57° W 23:12:26 39° SSW
Cosmos 2322 Rocket 2.8 23:06:08 10° NW 23:11:16 37° WSW 23:11:48 36° SW
Cosmos 2333 Rocket 2.1 23:05:39 10° NW 23:11:22 89° NE 23:15:07 22° SE
Cosmos 1980 Rocket 4.1 23:12:32 10° WNW 23:15:17 14° W 23:15:38 14° W
Cosmos 1607 4.1 23:13:57 41° S 23:15:46 55° SE 23:21:53 10° ENE
Meteor 1-25 Rocket 4.3 23:10:54 10° NNW 23:16:34 65° W 23:18:23 43° SSW
deb Kosmos-1763 4.0 23:16:40 73° W 23:16:49 75° NW 23:20:33 10° NNE
Cosmos 1151 Rocket 2.9 23:17:30 62° S 23:18:13 84° ESE 23:22:34 10° NNE
Cosmos 1869 Rocket 3.6 23:18:36 10° NNW 23:23:04 79° ENE 23:24:19 47° SSE
Cosmos 2123 Rocket 3.9 23:22:26 39° S 23:24:55 85° ESE 23:31:09 10° NNE
Cosmos 1464 Rocket 4.2 23:20:36 10° NNW 23:26:44 65° ENE 23:30:54 21° SSE
Cosmos 1782 3.6 23:26:21 37° SE 23:27:06 41° E 23:30:52 10° NNE
Cosmos 2237 Rocket 2.6 23:22:16 10° NW 23:27:55 63° NE 23:33:34 10° ESE
Cosmos 1354 Rocket 3.9 23:26:47 46° SSW 23:28:25 82° ESE 23:33:42 10° NE
ADEOS II 4.2 23:25:26 10° NE 23:29:11 19° E 23:32:54 10° SE
Cosmos 158 Rocket 4.0 23:23:52 10° NW 23:29:15 87° NE 23:32:20 25° SE
Cosmos 1606 2.5 23:29:30 73° SSW 23:29:51 89° WNW 23:33:46 10° NNE
Meteor 1-29 2.9 23:27:12 10° NNE 23:30:34 76° WNW 23:30:34 76° WNW
Meteor 1-14 Rocket 4.3 23:25:26 10° NNW 23:31:26 74° WSW 23:33:52 37° S
DELTA 2 DEB (DPAF) 4.3 23:31:20 49° SW 23:31:53 53° WSW 23:36:17 10° NNW
Resurs 1-4 Rocket 3.1 23:28:30 10° NNE 23:33:26 38° E 23:36:00 24° SE
Meteor 1-5 Rocket 4.4 23:30:24 10° NNW 23:36:17 75° ENE 23:39:46 24° SSE
Meteor 2-11 Rocket 4.4 23:32:06 10° NNW 23:38:17 84° ENE 23:41:52 27° SSE
Cosmos 1500 3.5 23:34:44 10° N 23:38:30 60° ENE 23:39:30 42° SE
SL-19 R/B 4.4 23:33:15 10° NNE 23:39:16 76° ESE 23:41:36 38° S
Cosmos 1933 Rocket 4.1 23:35:59 10° NNW 23:40:10 42° W 23:40:37 41° WSW
Cosmos 1515 Rocket 3.4 23:41:15 54° SSW 23:42:13 89° ESE 23:46:37 10° NNE
Meteor 1-26 Rocket 4.4 23:40:52 35° S 23:43:24 71° ESE 23:49:10 10° NNE
Cosmos 923 Rocket 4.0 23:38:19 10° NW 23:43:28 58° WSW 23:44:58 42° S
CZ-2D R/B 3.0 23:40:35 10° NNE 23:45:50 45° E 23:48:40 25° SSE
Cosmos 1503 Rocket 4.0 23:44:40 39° SW 23:46:39 77° NW 23:51:54 10° NE
Cosmos 2082 Rocket 2.5 23:44:34 27° WSW 23:47:41 64° NW 23:53:22 10° NE
ATLAS 5 CENTAUR R/B 2.1 23:44:46 10° W 23:49:38 78° N 23:55:24 10° E
Cosmos 1400 Rocket 4.5 23:48:35 21° W 23:49:52 25° NW 23:53:13 10° N
SME Rocket 4.2 23:45:26 10° NNE 23:50:43 44° NW 23:52:28 29° WSW
UNK 3.7 23:52:37 44° SSW 23:53:57 65° WSW 23:58:38 10° NNW
